SPACEBEE-10 (46305 NORAD) Tracking and Keplerian Element Data

This shows tracking and keplerian element data for the satellite.

Feedback or suggestion? Click here.




ElementValue
Catalog46305
NameSPACEBEE-10
Epoch Orbit310
Epoch Day268.34095744
Epoch Year2020
RAAN341.1001
Inclination97.518
Eccentricity0.0001545
Argument of Perigee127.2116
Mean Anonmoly232.9255
Mean Motion15.10666737
Decay Rate2.193E-05
L11 46305U 20061AK 20268.34095744 .00002193 00000-0 13634-3 0 9996
L22 46305 97.5180 341.1001 0001545 127.2116 232.9255 15.10666737 3109

Live tracking and technical data element details for SPACEBEE-10 (NORAD 46305). SPACEBEE-10 can be tracked NOW for your location showing map with azimuth and elevation plus other details from your city location.

Track the satellite on the map from your city or location and see movement details for azimuth, elevation, latitude, longitude, range, height, and movement on the map or in text.







IsCatalogInMostPopularTable: catalog: 46305, numindb: 2
Update: records affected: 1



GetName: 46305 SPACEBEE-10

Hit Count: updated at: Sat, 26 Sep 2020 14:35:10 GMT